Weather History for LIBA - October, 2012

Change the Weather History Date:

Friday, October 5, 2012

  Actual Average Record
Temperature  
Mean Temperature 68 °F -  
Max Temperature 82 °F 70 °F 87 °F (2007)
Min Temperature 54 °F 52 °F 46 °F (1997)
Cooling Degree Days 3    
Growing Degree Days 18 (Base 50)    
Moisture  
Dew Point 57 °F    
Average Humidity 63    
Maximum Humidity 94    
Minimum Humidity 23    
Precipitation  
Precipitation 0.00 in 0.07 in - ()
Sea Level Pressure  
Sea Level Pressure 30.09 in    
Wind  
Wind Speed 5 mph ()    
Max Wind Speed 10 mph    
Max Gust Speed -    
Visibility 7.6 miles    
Events      
Averages and records for this station are not official NWS values.
T = Trace of Precipitation, MM = Missing Value Source: Averaged Metar Reports

Daily Weather History Graph

Daily Weather History Graph

Search for Another Location

Airport or City:

Trip Planner

Search our weather history database for the weather conditions in past years. The results will help you decide how hot, cold, wet, or windy it might be!

Date:

Astronomy

Oct. 05, 2012 Rise Set
Actual Time 6:58 AM CEST 6:31 PM CEST
Civil Twilight 6:30 AM CEST 6:59 PM CEST
Nautical Twilight 5:58 AM CEST 7:31 PM CEST
Astronomical Twilight 5:26 AM CEST 8:03 PM CEST
Moon 9:37 PM CEST (10/5) 11:55 AM CEST (10/5)
Length of Visible Light 12h 28m
Length of Day
11h 33m
Waning Gibbous, 76% of the Moon is Illuminated
Oct 5
Waning Gibbous
Oct 8
Last Quarter
Oct 15
New
Oct 22
First Quarter
Oct 29
Full

Hourly Weather History & Observations

Time (CEST) Temp. Heat Index Dew Point Humidity Pressure Visibility Wind Dir Wind Speed Gust Speed Precip Events Conditions
6:55 AM 55.4 °F - 51.8 °F 88% 30.06 in - West 5.8 mph - N/A   Clear
7:55 AM 55.4 °F - 51.8 °F 88% 30.06 in - WNW 5.8 mph - N/A   Clear
8:00 AM 55 °F - 51 °F 83% 30.09 in 9 mi WNW 5.8 mph - -   Scattered Clouds
8:55 AM 60.8 °F - 57.2 °F 88% 30.09 in 6.2 mi West 2.3 mph - N/A   Partly Cloudy
9:55 AM 68.0 °F - 59.0 °F 73% 30.09 in 6.2 mi WNW 3.5 mph - N/A   Partly Cloudy
10:55 AM 73.4 °F - 59.0 °F 61% 30.09 in 6.2 mi West 5.8 mph - N/A   Partly Cloudy
11:00 AM 73 °F - 59 °F 52% 30.12 in 9 mi West 5.8 mph - -   Scattered Clouds
11:55 AM 77.0 °F - 55.4 °F 47% 30.09 in 6.2 mi WNW 4.6 mph - N/A   Partly Cloudy
12:55 PM 78.8 °F - 53.6 °F 42% 30.09 in 6.2 mi SW 3.5 mph - N/A   Partly Cloudy
1:55 PM 80.6 °F 80.3 °F 53.6 °F 39% 30.09 in 6.2 mi WSW 5.8 mph - N/A   Partly Cloudy
2:00 PM 81 °F - 53 °F 27% 30.10 in 12 mi WSW 5.8 mph - -   Scattered Clouds
2:55 PM 82.4 °F 81.4 °F 53.6 °F 37% 30.06 in 6.2 mi West 10.4 mph - N/A   Partly Cloudy
3:55 PM 82.4 °F - 51.8 °F 35% 30.09 in 6.2 mi West 9.2 mph - N/A   Partly Cloudy
4:55 PM 80.6 °F - 50.0 °F 34% 30.06 in - East 8.1 mph - N/A   Clear
5:00 PM 81 °F - 50 °F 23% 30.07 in 12 mi East 8.1 mph - -   Scattered Clouds
5:55 PM 75.2 °F - 59.0 °F 57% 30.06 in - East 8.1 mph - N/A   Clear
6:55 PM 71.6 °F - 66.2 °F 83% 30.09 in - ESE 5.8 mph - N/A   Clear
7:55 PM 69.8 °F - 66.2 °F 88% 30.09 in - South 3.5 mph - N/A   Clear
8:00 PM 69 °F - 66 °F 89% 30.10 in 7 mi South 3.5 mph - -   Partly Cloudy
8:55 PM 68.0 °F - 66.2 °F 94% 30.12 in - SW 5.8 mph - N/A   Clear
9:55 PM 66.2 °F - 64.4 °F 94% 30.12 in - SW 6.9 mph - N/A   Clear